A/2018 V3

Japanese version
Home page
Updated on August 7, 2019

---------------------------------------------------------------------

* Profile

Discovery Date November 12, 2018
Magnitude 21.9 mag
Discoverer Pan-STARRS 2 (Haleakala)

* Pictures

* Orbital Elements

Epoch 2019 Aug. 25.0 TT = JDT 2458720.5
T 2019 Sept. 8.69078 TT                                 MPCW
q   1.3391943            (2000.0)            P               Q
z  +0.0082470      Peri.    3.50970     +0.57727652     -0.79106132
 +/-0.0000419      Node   308.65435     -0.75533921     -0.61150427
e   0.9889556      Incl.  164.97715     -0.31018462     +0.01686746
From 71 observations 2018 Nov. 2-2019 Jan. 6, mean residual 0".3.

* Finding Charts

* Magnitudes Graph

        H = 15.5  G = 0.15

---------------------------------------------------------------------

The orbital elements are published on M.P.E.C. 2019-J142.
The charts are made with StellaNavigator Ver.10 (AstroArts).
The magnitudes graphs are made with Comet for Windows.

---------------------------------------------------------------------

Copyright(C) Seiichi Yoshida (comet@aerith.net). All rights reserved.